Year,Month,Day,Hour,Minute,Value (Times are PST for temperature in C)
2012,09,17,00,00,13.50
2012,09,17,00,01,13.50
2012,09,17,00,02,13.50
2012,09,17,00,03,13.50
2012,09,17,00,04,13.50
2012,09,17,00,05,13.50
2012,09,17,00,06,13.50
2012,09,17,00,07,13.50
2012,09,17,00,08,13.40
2012,09,17,00,09,13.40
2012,09,17,00,10,13.40
2012,09,17,00,11,13.30
2012,09,17,00,12,13.30
2012,09,17,00,13,13.30
2012,09,17,00,14,13.30
2012,09,17,00,15,13.30
2012,09,17,00,16,13.30
2012,09,17,00,17,13.20
2012,09,17,00,18,13.20
2012,09,17,00,19,13.20
2012,09,17,00,20,13.10
2012,09,17,00,21,13.10
2012,09,17,00,22,13.10
2012,09,17,00,23,13.10
2012,09,17,00,24,13.10
2012,09,17,00,25,13.00
2012,09,17,00,26,13.00
2012,09,17,00,27,13.00
2012,09,17,00,28,13.00
2012,09,17,00,29,13.00
2012,09,17,00,30,13.00
2012,09,17,00,31,13.00
2012,09,17,00,32,13.00
2012,09,17,00,33,13.00
2012,09,17,00,34,12.90
2012,09,17,00,35,12.90
2012,09,17,00,36,12.90
2012,09,17,00,37,12.90
2012,09,17,00,38,12.90
2012,09,17,00,39,12.90
2012,09,17,00,40,12.90
2012,09,17,00,41,12.90
2012,09,17,00,42,12.90
2012,09,17,00,43,12.90
2012,09,17,00,44,12.90
2012,09,17,00,45,12.90
2012,09,17,00,46,12.80
2012,09,17,00,47,12.80
2012,09,17,00,48,12.80
2012,09,17,00,49,12.80
2012,09,17,00,50,12.80
2012,09,17,00,51,12.80
2012,09,17,00,52,12.80
2012,09,17,00,53,12.80
2012,09,17,00,54,12.70
2012,09,17,00,55,12.70
2012,09,17,00,56,12.70
2012,09,17,00,57,12.70
2012,09,17,00,58,12.60
2012,09,17,00,59,12.60
2012,09,17,01,00,12.60
2012,09,17,01,01,12.60
2012,09,17,01,02,12.60
2012,09,17,01,03,12.50
2012,09,17,01,04,12.50
2012,09,17,01,05,12.50
2012,09,17,01,06,12.50
2012,09,17,01,07,12.50
2012,09,17,01,08,12.50
2012,09,17,01,09,12.50
2012,09,17,01,10,12.50
2012,09,17,01,11,12.50
2012,09,17,01,12,12.50
2012,09,17,01,13,12.50
2012,09,17,01,14,12.50
2012,09,17,01,15,12.50
2012,09,17,01,16,12.50
2012,09,17,01,17,12.50
2012,09,17,01,18,12.50
2012,09,17,01,19,12.50
2012,09,17,01,20,12.50
2012,09,17,01,21,12.50
2012,09,17,01,22,12.50
2012,09,17,01,23,12.50
2012,09,17,01,24,12.50
2012,09,17,01,25,12.50
2012,09,17,01,26,12.50
2012,09,17,01,27,12.50
2012,09,17,01,28,12.50
2012,09,17,01,29,12.50
2012,09,17,01,30,12.50
2012,09,17,01,31,12.50
2012,09,17,01,32,12.50
2012,09,17,01,33,12.50
2012,09,17,01,34,12.50
2012,09,17,01,35,12.40
2012,09,17,01,36,12.40
2012,09,17,01,37,12.40
2012,09,17,01,38,12.40
2012,09,17,01,39,12.30
2012,09,17,01,40,12.30
2012,09,17,01,41,12.30
2012,09,17,01,42,12.30
2012,09,17,01,43,12.30
2012,09,17,01,44,12.30
2012,09,17,01,45,12.30
2012,09,17,01,46,12.30
2012,09,17,01,47,12.20
2012,09,17,01,48,12.20
2012,09,17,01,49,12.20
2012,09,17,01,50,12.10
2012,09,17,01,51,12.10
2012,09,17,01,52,12.10
2012,09,17,01,53,12.10
2012,09,17,01,54,12.00
2012,09,17,01,55,12.00
2012,09,17,01,56,12.00
2012,09,17,01,57,12.00
2012,09,17,01,58,11.90
2012,09,17,01,59,11.90
2012,09,17,02,00,11.90
2012,09,17,02,01,11.80
2012,09,17,02,02,11.80
2012,09,17,02,03,11.80
2012,09,17,02,04,11.80
2012,09,17,02,05,11.80
2012,09,17,02,06,11.80
2012,09,17,02,07,11.80
2012,09,17,02,08,11.70
2012,09,17,02,09,11.70
2012,09,17,02,10,11.70
2012,09,17,02,11,11.70
2012,09,17,02,12,11.60
2012,09,17,02,13,11.60
2012,09,17,02,14,11.60
2012,09,17,02,15,11.60
2012,09,17,02,16,11.60
2012,09,17,02,17,11.60
2012,09,17,02,18,11.60
2012,09,17,02,19,11.60
2012,09,17,02,20,11.60
2012,09,17,02,21,11.60
2012,09,17,02,22,11.60
2012,09,17,02,23,11.60
2012,09,17,02,24,11.60
2012,09,17,02,25,11.60
2012,09,17,02,26,11.60
2012,09,17,02,27,11.60
2012,09,17,02,28,11.60
2012,09,17,02,29,11.60
2012,09,17,02,30,11.60
2012,09,17,02,31,11.60
2012,09,17,02,32,11.60
2012,09,17,02,33,11.60
2012,09,17,02,34,11.70
2012,09,17,02,35,11.70
2012,09,17,02,36,11.70
2012,09,17,02,37,11.70
2012,09,17,02,38,11.70
2012,09,17,02,39,11.70
2012,09,17,02,40,11.70
2012,09,17,02,41,11.70
2012,09,17,02,42,11.70
2012,09,17,02,43,11.70
2012,09,17,02,44,11.70
2012,09,17,02,45,11.70
2012,09,17,02,46,11.70
2012,09,17,02,47,11.70
2012,09,17,02,48,11.70
2012,09,17,02,49,11.70
2012,09,17,02,50,11.70
2012,09,17,02,51,11.70
2012,09,17,02,52,11.70
2012,09,17,02,53,11.70
2012,09,17,02,54,11.70
2012,09,17,02,55,11.70
2012,09,17,02,56,11.60
2012,09,17,02,57,11.60
2012,09,17,02,58,11.60
2012,09,17,02,59,11.60
2012,09,17,03,00,11.60
2012,09,17,03,01,11.60
2012,09,17,03,02,11.60
2012,09,17,03,03,11.60
2012,09,17,03,04,11.60
2012,09,17,03,05,11.60
2012,09,17,03,06,11.60
2012,09,17,03,07,11.60
2012,09,17,03,08,11.60
2012,09,17,03,09,11.60
2012,09,17,03,10,11.60
2012,09,17,03,11,11.60
2012,09,17,03,12,11.60
2012,09,17,03,13,11.70
2012,09,17,03,14,11.70
2012,09,17,03,15,11.70
2012,09,17,03,16,11.70
2012,09,17,03,17,11.70
2012,09,17,03,18,11.70
2012,09,17,03,19,11.70
2012,09,17,03,20,11.80
2012,09,17,03,21,11.80
2012,09,17,03,22,11.80
2012,09,17,03,23,11.80
2012,09,17,03,24,11.80
2012,09,17,03,25,11.80
2012,09,17,03,26,11.80
2012,09,17,03,27,11.80
2012,09,17,03,28,11.80
2012,09,17,03,29,11.80
2012,09,17,03,30,11.70
2012,09,17,03,31,11.70
2012,09,17,03,32,11.70
2012,09,17,03,33,11.70
2012,09,17,03,34,11.60
2012,09,17,03,35,11.60
2012,09,17,03,36,11.60
2012,09,17,03,37,11.60
2012,09,17,03,38,11.60
2012,09,17,03,39,11.60
2012,09,17,03,40,11.50
2012,09,17,03,41,11.40
2012,09,17,03,42,11.40
2012,09,17,03,43,11.40
2012,09,17,03,44,11.40
2012,09,17,03,45,11.40
2012,09,17,03,46,11.40
2012,09,17,03,47,11.40
2012,09,17,03,48,11.30
2012,09,17,03,49,11.30
2012,09,17,03,50,11.30
2012,09,17,03,51,11.20
2012,09,17,03,52,11.20
2012,09,17,03,53,11.20
2012,09,17,03,54,11.20
2012,09,17,03,55,11.20
2012,09,17,03,56,11.10
2012,09,17,03,57,11.10
2012,09,17,03,58,11.10
2012,09,17,03,59,11.10
2012,09,17,04,00,11.10
2012,09,17,04,01,11.10
2012,09,17,04,02,11.10
2012,09,17,04,03,11.10
2012,09,17,04,04,11.10
2012,09,17,04,05,11.10
2012,09,17,04,06,11.10
2012,09,17,04,07,11.10
2012,09,17,04,08,11.10
2012,09,17,04,09,11.10
2012,09,17,04,10,11.10
2012,09,17,04,11,11.10
2012,09,17,04,12,11.10
2012,09,17,04,13,11.10
2012,09,17,04,14,11.10
2012,09,17,04,15,11.00
2012,09,17,04,16,10.90
2012,09,17,04,17,10.90
2012,09,17,04,18,10.90
2012,09,17,04,19,10.90
2012,09,17,04,20,10.90
2012,09,17,04,21,10.90
2012,09,17,04,22,10.90
2012,09,17,04,23,10.90
2012,09,17,04,24,10.90
2012,09,17,04,25,10.90
2012,09,17,04,26,10.90
2012,09,17,04,27,10.90
2012,09,17,04,28,10.90
2012,09,17,04,29,10.90
2012,09,17,04,30,10.90
2012,09,17,04,31,10.90
2012,09,17,04,32,10.90
2012,09,17,04,33,10.90
2012,09,17,04,34,10.80
2012,09,17,04,35,10.80
2012,09,17,04,36,10.80
2012,09,17,04,37,10.70
2012,09,17,04,38,10.70
2012,09,17,04,39,10.70
2012,09,17,04,40,10.70
2012,09,17,04,41,10.60
2012,09,17,04,42,10.60
2012,09,17,04,43,10.60
2012,09,17,04,44,10.60
2012,09,17,04,45,10.60
2012,09,17,04,46,10.60
2012,09,17,04,47,10.60
2012,09,17,04,48,10.50
2012,09,17,04,49,10.40
2012,09,17,04,50,10.40
2012,09,17,04,51,10.40
2012,09,17,04,52,10.40
2012,09,17,04,53,10.40
2012,09,17,04,54,10.40
2012,09,17,04,55,10.40
2012,09,17,04,56,10.40
2012,09,17,04,57,10.40
2012,09,17,04,58,10.40
2012,09,17,04,59,10.40
2012,09,17,05,00,10.40
2012,09,17,05,01,10.40
2012,09,17,05,02,10.40
2012,09,17,05,03,10.40
2012,09,17,05,04,10.30
2012,09,17,05,05,10.30
2012,09,17,05,06,10.30
2012,09,17,05,07,10.30
2012,09,17,05,08,10.30
2012,09,17,05,09,10.30
2012,09,17,05,10,10.30
2012,09,17,05,11,10.30
2012,09,17,05,12,10.20
2012,09,17,05,13,10.20
2012,09,17,05,14,10.20
2012,09,17,05,15,10.20
2012,09,17,05,16,10.20
2012,09,17,05,17,10.20
2012,09,17,05,18,10.10
2012,09,17,05,19,10.10
2012,09,17,05,20,10.10
2012,09,17,05,21,10.10
2012,09,17,05,22,10.10
2012,09,17,05,23,10.10
2012,09,17,05,24,10.10
2012,09,17,05,25,10.10
2012,09,17,05,26,10.10
2012,09,17,05,27,10.10
2012,09,17,05,28,10.10
2012,09,17,05,29,10.00
2012,09,17,05,30,9.90
2012,09,17,05,31,9.90
2012,09,17,05,32,9.90
2012,09,17,05,33,9.90
2012,09,17,05,34,9.90
2012,09,17,05,35,9.90
2012,09,17,05,36,9.90
2012,09,17,05,37,9.90
2012,09,17,05,38,9.90
2012,09,17,05,39,9.90
2012,09,17,05,40,9.90
2012,09,17,05,41,9.90
2012,09,17,05,42,9.90
2012,09,17,05,43,9.80
2012,09,17,05,44,9.80
2012,09,17,05,45,9.80
2012,09,17,05,46,9.80
2012,09,17,05,47,9.80
2012,09,17,05,48,9.80
2012,09,17,05,49,9.80
2012,09,17,05,50,9.80
2012,09,17,05,51,9.70
2012,09,17,05,52,9.70
2012,09,17,05,53,9.70
2012,09,17,05,54,9.70
2012,09,17,05,55,9.70
2012,09,17,05,56,9.70
2012,09,17,05,57,9.70
2012,09,17,05,58,9.70
2012,09,17,05,59,9.70
2012,09,17,06,00,9.70
2012,09,17,06,01,9.70
2012,09,17,06,02,9.70
2012,09,17,06,03,9.70
2012,09,17,06,04,9.70
2012,09,17,06,05,9.60
2012,09,17,06,06,9.60
2012,09,17,06,07,9.60
2012,09,17,06,08,9.60
2012,09,17,06,09,9.60
2012,09,17,06,10,9.60
2012,09,17,06,11,9.60
2012,09,17,06,12,9.60
2012,09,17,06,13,9.60
2012,09,17,06,14,9.60
2012,09,17,06,15,9.60
2012,09,17,06,16,9.60
2012,09,17,06,17,9.60
2012,09,17,06,18,9.60
2012,09,17,06,19,9.60
2012,09,17,06,20,9.60
2012,09,17,06,21,9.60
2012,09,17,06,22,9.60
2012,09,17,06,23,9.50
2012,09,17,06,24,9.50
2012,09,17,06,25,9.50
2012,09,17,06,26,9.50
2012,09,17,06,27,9.50
2012,09,17,06,28,9.50
2012,09,17,06,29,9.50
2012,09,17,06,30,9.50
2012,09,17,06,31,9.50
2012,09,17,06,32,9.50
2012,09,17,06,33,9.50
2012,09,17,06,34,9.40
2012,09,17,06,35,9.40
2012,09,17,06,36,9.40
2012,09,17,06,37,9.40
2012,09,17,06,38,9.40
2012,09,17,06,39,9.50
2012,09,17,06,40,9.50
2012,09,17,06,41,9.50
2012,09,17,06,42,9.50
2012,09,17,06,43,9.50
2012,09,17,06,44,9.60
2012,09,17,06,45,9.60
2012,09,17,06,46,9.60
2012,09,17,06,47,9.60
2012,09,17,06,48,9.60
2012,09,17,06,49,9.60
2012,09,17,06,50,9.60
2012,09,17,06,51,9.60
2012,09,17,06,52,9.70
2012,09,17,06,53,9.70
2012,09,17,06,54,9.70
2012,09,17,06,55,9.70
2012,09,17,06,56,9.70
2012,09,17,06,57,9.70
2012,09,17,06,58,9.70
2012,09,17,06,59,9.70
2012,09,17,07,00,9.70
2012,09,17,07,01,9.80
2012,09,17,07,02,9.80
2012,09,17,07,03,9.80
2012,09,17,07,04,9.80
2012,09,17,07,05,9.80
2012,09,17,07,06,9.80
2012,09,17,07,07,9.80
2012,09,17,07,08,9.80
2012,09,17,07,09,9.80
2012,09,17,07,10,9.80
2012,09,17,07,11,9.90
2012,09,17,07,12,9.90
2012,09,17,07,13,9.90
2012,09,17,07,14,9.90
2012,09,17,07,15,9.90
2012,09,17,07,16,9.90
2012,09,17,07,17,9.80
2012,09,17,07,18,9.80
2012,09,17,07,19,9.80
2012,09,17,07,20,9.80
2012,09,17,07,21,9.80
2012,09,17,07,22,9.80
2012,09,17,07,23,9.80
2012,09,17,07,24,9.80
2012,09,17,07,25,9.80
2012,09,17,07,26,9.70
2012,09,17,07,27,9.70
2012,09,17,07,28,9.70
2012,09,17,07,29,9.70
2012,09,17,07,30,9.70
2012,09,17,07,31,9.70
2012,09,17,07,32,9.70
2012,09,17,07,33,9.70
2012,09,17,07,34,9.70
2012,09,17,07,35,9.70
2012,09,17,07,36,9.70
2012,09,17,07,37,9.70
2012,09,17,07,38,9.70
2012,09,17,07,39,9.70
2012,09,17,07,40,9.70
2012,09,17,07,41,9.70
2012,09,17,07,42,9.70
2012,09,17,07,43,9.70
2012,09,17,07,44,9.70
2012,09,17,07,45,9.70
2012,09,17,07,46,9.70
2012,09,17,07,47,9.80
2012,09,17,07,48,9.80
2012,09,17,07,49,9.80
2012,09,17,07,50,9.80
2012,09,17,07,51,9.80
2012,09,17,07,52,9.90
2012,09,17,07,53,9.90
2012,09,17,07,54,9.90
2012,09,17,07,55,9.90
2012,09,17,07,56,9.90
2012,09,17,07,57,10.00
2012,09,17,07,58,10.10
2012,09,17,07,59,10.10
2012,09,17,08,00,10.20
2012,09,17,08,01,10.20
2012,09,17,08,02,10.30
2012,09,17,08,03,10.40
2012,09,17,08,04,10.40
2012,09,17,08,05,10.50
2012,09,17,08,06,10.60
2012,09,17,08,07,10.60
2012,09,17,08,08,10.70
2012,09,17,08,09,10.80
2012,09,17,08,10,10.90
2012,09,17,08,11,11.00
2012,09,17,08,12,11.10
2012,09,17,08,13,11.20
2012,09,17,08,14,11.30
2012,09,17,08,15,11.40
2012,09,17,08,16,11.50
2012,09,17,08,17,11.70
2012,09,17,08,18,11.80
2012,09,17,08,19,11.90
2012,09,17,08,20,12.00
2012,09,17,08,21,12.10
2012,09,17,08,22,12.20
2012,09,17,08,23,12.30
2012,09,17,08,24,12.30
2012,09,17,08,25,12.40
2012,09,17,08,26,12.50
2012,09,17,08,27,12.60
2012,09,17,08,28,12.60
2012,09,17,08,29,12.70
2012,09,17,08,30,12.80
2012,09,17,08,31,12.80
2012,09,17,08,32,12.90
2012,09,17,08,33,12.90
2012,09,17,08,34,13.00
2012,09,17,08,35,13.10
2012,09,17,08,36,13.20
2012,09,17,08,37,13.20
2012,09,17,08,38,13.30
2012,09,17,08,39,13.40
2012,09,17,08,40,13.50
2012,09,17,08,41,13.50
2012,09,17,08,42,13.60
2012,09,17,08,43,13.70
2012,09,17,08,44,13.70
2012,09,17,08,45,13.80
2012,09,17,08,46,13.80
2012,09,17,08,47,13.90
2012,09,17,08,48,14.00
2012,09,17,08,49,14.10
2012,09,17,08,50,14.30
2012,09,17,08,51,14.50
2012,09,17,08,52,14.60
2012,09,17,08,53,14.80
2012,09,17,08,54,15.10
2012,09,17,08,55,15.30
2012,09,17,08,56,15.50
2012,09,17,08,57,15.70
2012,09,17,08,58,15.90
2012,09,17,08,59,16.20
2012,09,17,09,00,16.40
2012,09,17,09,01,16.50
2012,09,17,09,02,16.70
2012,09,17,09,03,16.90
2012,09,17,09,04,17.10
2012,09,17,09,05,17.30
2012,09,17,09,06,17.40
2012,09,17,09,07,17.60
2012,09,17,09,08,17.70
2012,09,17,09,09,17.80
2012,09,17,09,10,17.90
2012,09,17,09,11,18.00
2012,09,17,09,12,18.10
2012,09,17,09,13,18.20
2012,09,17,09,14,18.20
2012,09,17,09,15,18.30
2012,09,17,09,16,18.40
2012,09,17,09,17,18.50
2012,09,17,09,18,18.60
2012,09,17,09,19,18.70
2012,09,17,09,20,18.90
2012,09,17,09,21,19.00
2012,09,17,09,22,19.10
2012,09,17,09,23,19.20
2012,09,17,09,24,19.30
2012,09,17,09,25,19.40
2012,09,17,09,26,19.50
2012,09,17,09,27,19.50
2012,09,17,09,28,19.60
2012,09,17,09,29,19.60
2012,09,17,09,30,19.60
2012,09,17,09,31,19.70
2012,09,17,09,32,19.70
2012,09,17,09,33,19.80
2012,09,17,09,34,19.90
2012,09,17,09,35,19.90
2012,09,17,09,36,19.90
2012,09,17,09,37,19.90
2012,09,17,09,38,19.90
2012,09,17,09,39,19.90
2012,09,17,09,40,20.00
2012,09,17,09,41,20.10
2012,09,17,09,42,20.10
2012,09,17,09,43,20.10
2012,09,17,09,44,20.20
2012,09,17,09,45,20.20
2012,09,17,09,46,20.20
2012,09,17,09,47,20.20
2012,09,17,09,48,20.20
2012,09,17,09,49,20.20
2012,09,17,09,50,20.20
2012,09,17,09,51,20.10
2012,09,17,09,52,20.10
2012,09,17,09,53,20.10
2012,09,17,09,54,20.10
2012,09,17,09,55,20.10
2012,09,17,09,56,20.10
2012,09,17,09,57,20.00
2012,09,17,09,58,19.90
2012,09,17,09,59,19.90
2012,09,17,10,00,19.90
2012,09,17,10,01,19.90
2012,09,17,10,02,20.00
2012,09,17,10,03,20.10
2012,09,17,10,04,20.20
2012,09,17,10,05,20.20
2012,09,17,10,06,20.20
2012,09,17,10,07,20.30
2012,09,17,10,08,20.30
2012,09,17,10,09,20.40
2012,09,17,10,10,20.40
2012,09,17,10,11,20.40
2012,09,17,10,12,20.40
2012,09,17,10,13,20.50
2012,09,17,10,14,20.50
2012,09,17,10,15,20.50
2012,09,17,10,16,20.60
2012,09,17,10,17,20.60
2012,09,17,10,18,20.70
2012,09,17,10,19,20.70
2012,09,17,10,20,20.80
2012,09,17,10,21,20.80
2012,09,17,10,22,20.80
2012,09,17,10,23,20.70
2012,09,17,10,24,20.60
2012,09,17,10,25,20.60
2012,09,17,10,26,20.60
2012,09,17,10,27,20.60
2012,09,17,10,28,20.60
2012,09,17,10,29,20.60
2012,09,17,10,30,20.60
2012,09,17,10,31,20.70
2012,09,17,10,32,20.70
2012,09,17,10,33,20.80
2012,09,17,10,34,20.80
2012,09,17,10,35,20.90
2012,09,17,10,36,21.00
2012,09,17,10,37,21.00
2012,09,17,10,38,21.10
2012,09,17,10,39,21.20
2012,09,17,10,40,21.30
2012,09,17,10,41,21.30
2012,09,17,10,42,21.30
2012,09,17,10,43,21.30
2012,09,17,10,44,21.20
2012,09,17,10,45,21.20
2012,09,17,10,46,21.20
2012,09,17,10,47,21.30
2012,09,17,10,48,21.30
2012,09,17,10,49,21.40
2012,09,17,10,50,21.50
2012,09,17,10,51,21.60
2012,09,17,10,52,21.60
2012,09,17,10,53,21.70
2012,09,17,10,54,21.80
2012,09,17,10,55,21.90
2012,09,17,10,56,21.90
2012,09,17,10,57,21.90
2012,09,17,10,58,21.90
2012,09,17,10,59,21.90
2012,09,17,11,00,22.00
2012,09,17,11,01,22.10
2012,09,17,11,02,22.10
2012,09,17,11,03,22.20
2012,09,17,11,04,22.20
2012,09,17,11,05,22.30
2012,09,17,11,06,22.30
2012,09,17,11,07,22.40
2012,09,17,11,08,22.40
2012,09,17,11,09,22.40
2012,09,17,11,10,22.40
2012,09,17,11,11,22.30
2012,09,17,11,12,22.40
2012,09,17,11,13,22.40
2012,09,17,11,14,22.30
2012,09,17,11,15,22.20
2012,09,17,11,16,22.20
2012,09,17,11,17,22.10
2012,09,17,11,18,22.20
2012,09,17,11,19,22.20
2012,09,17,11,20,22.30
2012,09,17,11,21,22.50
2012,09,17,11,22,22.60
2012,09,17,11,23,22.70
2012,09,17,11,24,22.80
2012,09,17,11,25,22.90
2012,09,17,11,26,22.90
2012,09,17,11,27,22.80
2012,09,17,11,28,22.70
2012,09,17,11,29,22.70
2012,09,17,11,30,22.70
2012,09,17,11,31,22.70
2012,09,17,11,32,22.70
2012,09,17,11,33,22.80
2012,09,17,11,34,22.80
2012,09,17,11,35,22.90
2012,09,17,11,36,22.90
2012,09,17,11,37,22.90
2012,09,17,11,38,22.90
2012,09,17,11,39,22.90
2012,09,17,11,40,22.90
2012,09,17,11,41,22.90
2012,09,17,11,42,23.00
2012,09,17,11,43,23.10
2012,09,17,11,44,23.00
2012,09,17,11,45,22.90
2012,09,17,11,46,22.90
2012,09,17,11,47,23.00
2012,09,17,11,48,23.10
2012,09,17,11,49,23.20
2012,09,17,11,50,23.30
2012,09,17,11,51,23.40
2012,09,17,11,52,23.50
2012,09,17,11,53,23.60
2012,09,17,11,54,23.60
2012,09,17,11,55,23.70
2012,09,17,11,56,23.70
2012,09,17,11,57,23.50
2012,09,17,11,58,23.40
2012,09,17,11,59,23.20
2012,09,17,12,00,23.10
2012,09,17,12,01,23.10
2012,09,17,12,02,23.10
2012,09,17,12,03,23.00
2012,09,17,12,04,22.90
2012,09,17,12,05,22.90
2012,09,17,12,06,22.90
2012,09,17,12,07,22.90
2012,09,17,12,08,22.90
2012,09,17,12,09,22.80
2012,09,17,12,10,22.80
2012,09,17,12,11,22.80
2012,09,17,12,12,22.70
2012,09,17,12,13,22.60
2012,09,17,12,14,22.60
2012,09,17,12,15,22.70
2012,09,17,12,16,22.50
2012,09,17,12,17,22.30
2012,09,17,12,18,22.30
2012,09,17,12,19,22.20
2012,09,17,12,20,22.20
2012,09,17,12,21,22.20
2012,09,17,12,22,22.10
2012,09,17,12,23,22.00
2012,09,17,12,24,22.00
2012,09,17,12,25,21.90
2012,09,17,12,26,22.00
2012,09,17,12,27,22.00
2012,09,17,12,28,21.90
2012,09,17,12,29,21.80
2012,09,17,12,30,21.70
2012,09,17,12,31,21.60
2012,09,17,12,32,21.60
2012,09,17,12,33,21.60
2012,09,17,12,34,21.40
2012,09,17,12,35,21.30
2012,09,17,12,36,21.20
2012,09,17,12,37,21.10
2012,09,17,12,38,21.10
2012,09,17,12,39,21.10
2012,09,17,12,40,21.10
2012,09,17,12,41,21.20
2012,09,17,12,42,21.20
2012,09,17,12,43,21.10
2012,09,17,12,44,21.10
2012,09,17,12,45,21.10
2012,09,17,12,46,21.10
2012,09,17,12,47,21.00
2012,09,17,12,48,20.90
2012,09,17,12,49,21.00
2012,09,17,12,50,21.10
2012,09,17,12,51,21.30
2012,09,17,12,52,21.50
2012,09,17,12,53,21.60
2012,09,17,12,54,21.60
2012,09,17,12,55,21.80
2012,09,17,12,56,21.80
2012,09,17,12,57,21.90
2012,09,17,12,58,22.00
2012,09,17,12,59,22.00
2012,09,17,13,00,22.20
2012,09,17,13,01,22.30
2012,09,17,13,02,22.30
2012,09,17,13,03,22.40
2012,09,17,13,04,22.40
2012,09,17,13,05,22.40
2012,09,17,13,06,22.50
2012,09,17,13,07,22.50
2012,09,17,13,08,22.60
2012,09,17,13,09,22.70
2012,09,17,13,10,22.80
2012,09,17,13,11,22.80
2012,09,17,13,12,22.90
2012,09,17,13,13,22.90
2012,09,17,13,14,22.90
2012,09,17,13,15,22.90
2012,09,17,13,16,22.90
2012,09,17,13,17,23.00
2012,09,17,13,18,23.00
2012,09,17,13,19,22.90
2012,09,17,13,20,22.80
2012,09,17,13,21,22.70
2012,09,17,13,22,22.60
2012,09,17,13,23,22.60
2012,09,17,13,24,22.50
2012,09,17,13,25,22.40
2012,09,17,13,26,22.30
2012,09,17,13,27,22.20
2012,09,17,13,28,22.00
2012,09,17,13,29,21.90
2012,09,17,13,30,21.90
2012,09,17,13,31,21.80
2012,09,17,13,32,21.90
2012,09,17,13,33,21.90
2012,09,17,13,34,21.80
2012,09,17,13,35,21.80
2012,09,17,13,36,21.90
2012,09,17,13,37,22.00
2012,09,17,13,38,22.20
2012,09,17,13,39,22.40
2012,09,17,13,40,22.40
2012,09,17,13,41,22.40
2012,09,17,13,42,22.40
2012,09,17,13,43,22.50
2012,09,17,13,44,22.50
2012,09,17,13,45,22.60
2012,09,17,13,46,22.70
2012,09,17,13,47,22.70
2012,09,17,13,48,22.70
2012,09,17,13,49,22.70
2012,09,17,13,50,22.70
2012,09,17,13,51,22.70
2012,09,17,13,52,22.80
2012,09,17,13,53,22.70
2012,09,17,13,54,22.60
2012,09,17,13,55,22.60
2012,09,17,13,56,22.60
2012,09,17,13,57,22.60
2012,09,17,13,58,22.70
2012,09,17,13,59,22.80
2012,09,17,14,00,22.80
2012,09,17,14,01,22.80
2012,09,17,14,02,22.90
2012,09,17,14,03,23.00
2012,09,17,14,04,23.10
2012,09,17,14,05,23.20
2012,09,17,14,06,23.30
2012,09,17,14,07,23.30
2012,09,17,14,08,23.40
2012,09,17,14,09,23.50
2012,09,17,14,10,23.60
2012,09,17,14,11,23.60
2012,09,17,14,12,23.60
2012,09,17,14,13,23.70
2012,09,17,14,14,23.70
2012,09,17,14,15,23.80
2012,09,17,14,16,23.90
2012,09,17,14,17,24.10
2012,09,17,14,18,24.20
2012,09,17,14,19,24.40
2012,09,17,14,20,24.50
2012,09,17,14,21,24.70
2012,09,17,14,22,24.80
2012,09,17,14,23,24.90
2012,09,17,14,24,24.90
2012,09,17,14,25,25.00
2012,09,17,14,26,25.00
2012,09,17,14,27,25.10
2012,09,17,14,28,25.10
2012,09,17,14,29,25.00
2012,09,17,14,30,25.10
2012,09,17,14,31,25.20
2012,09,17,14,32,25.20
2012,09,17,14,33,25.20
2012,09,17,14,34,25.20
2012,09,17,14,35,25.10
2012,09,17,14,36,25.10
2012,09,17,14,37,25.20
2012,09,17,14,38,25.20
2012,09,17,14,39,25.20
2012,09,17,14,40,25.00
2012,09,17,14,41,24.90
2012,09,17,14,42,24.90
2012,09,17,14,43,24.70
2012,09,17,14,44,24.50
2012,09,17,14,45,24.40
2012,09,17,14,46,24.30
2012,09,17,14,47,24.30
2012,09,17,14,48,24.20
2012,09,17,14,49,24.20
2012,09,17,14,50,24.20
2012,09,17,14,51,24.10
2012,09,17,14,52,24.20
2012,09,17,14,53,24.20
2012,09,17,14,54,24.30
2012,09,17,14,55,24.30
2012,09,17,14,56,24.30
2012,09,17,14,57,24.40
2012,09,17,14,58,24.40
2012,09,17,14,59,24.40
2012,09,17,15,00,24.30
2012,09,17,15,01,24.30
2012,09,17,15,02,24.20
2012,09,17,15,03,24.00
2012,09,17,15,04,23.90
2012,09,17,15,05,23.70
2012,09,17,15,06,23.70
2012,09,17,15,07,23.70
2012,09,17,15,08,23.70
2012,09,17,15,09,23.70
2012,09,17,15,10,23.70
2012,09,17,15,11,23.70
2012,09,17,15,12,23.70
2012,09,17,15,13,23.70
2012,09,17,15,14,23.70
2012,09,17,15,15,23.70
2012,09,17,15,16,23.70
2012,09,17,15,17,23.60
2012,09,17,15,18,23.50
2012,09,17,15,19,23.40
2012,09,17,15,20,23.30
2012,09,17,15,21,23.10
2012,09,17,15,22,23.00
2012,09,17,15,23,22.80
2012,09,17,15,24,22.60
2012,09,17,15,25,22.60
2012,09,17,15,26,22.50
2012,09,17,15,27,22.50
2012,09,17,15,28,22.50
2012,09,17,15,29,22.60
2012,09,17,15,30,22.60
2012,09,17,15,31,22.70
2012,09,17,15,32,22.70
2012,09,17,15,33,22.60
2012,09,17,15,34,22.60
2012,09,17,15,35,22.50
2012,09,17,15,36,22.50
2012,09,17,15,37,22.50
2012,09,17,15,38,22.50
2012,09,17,15,39,22.60
2012,09,17,15,40,22.70
2012,09,17,15,41,22.70
2012,09,17,15,42,22.80
2012,09,17,15,43,22.90
2012,09,17,15,44,22.90
2012,09,17,15,45,22.90
2012,09,17,15,46,22.80
2012,09,17,15,47,22.70
2012,09,17,15,48,22.70
2012,09,17,15,49,22.60
2012,09,17,15,50,22.60
2012,09,17,15,51,22.60
2012,09,17,15,52,22.50
2012,09,17,15,53,22.50
2012,09,17,15,54,22.50
2012,09,17,15,55,22.30
2012,09,17,15,56,22.30
2012,09,17,15,57,22.30
2012,09,17,15,58,22.20
2012,09,17,15,59,22.20
2012,09,17,16,00,22.10
2012,09,17,16,01,22.10
2012,09,17,16,02,22.10
2012,09,17,16,03,22.00
2012,09,17,16,04,22.00
2012,09,17,16,05,22.00
2012,09,17,16,06,21.90
2012,09,17,16,07,21.90
2012,09,17,16,08,21.90
2012,09,17,16,09,21.90
2012,09,17,16,10,21.90
2012,09,17,16,11,21.80
2012,09,17,16,12,21.80
2012,09,17,16,13,21.80
2012,09,17,16,14,21.80
2012,09,17,16,15,21.80
2012,09,17,16,16,21.60
2012,09,17,16,17,21.60
2012,09,17,16,18,21.40
2012,09,17,16,19,21.40
2012,09,17,16,20,21.40
2012,09,17,16,21,21.40
2012,09,17,16,22,21.40
2012,09,17,16,23,21.40
2012,09,17,16,24,21.40
2012,09,17,16,25,21.40
2012,09,17,16,26,21.40
2012,09,17,16,27,21.30
2012,09,17,16,28,21.30
2012,09,17,16,29,21.30
2012,09,17,16,30,21.30
2012,09,17,16,31,21.20
2012,09,17,16,32,21.20
2012,09,17,16,33,21.20
2012,09,17,16,34,21.10
2012,09,17,16,35,21.00
2012,09,17,16,36,21.00
2012,09,17,16,37,20.90
2012,09,17,16,38,20.90
2012,09,17,16,39,20.90
2012,09,17,16,40,20.90
2012,09,17,16,41,20.90
2012,09,17,16,42,20.90
2012,09,17,16,43,20.90
2012,09,17,16,44,21.00
2012,09,17,16,45,21.00
2012,09,17,16,46,21.10
2012,09,17,16,47,21.10
2012,09,17,16,48,21.20
2012,09,17,16,49,21.20
2012,09,17,16,50,21.30
2012,09,17,16,51,21.30
2012,09,17,16,52,21.30
2012,09,17,16,53,21.30
2012,09,17,16,54,21.30
2012,09,17,16,55,21.30
2012,09,17,16,56,21.30
2012,09,17,16,57,21.40
2012,09,17,16,58,21.60
2012,09,17,16,59,21.60
2012,09,17,17,00,21.70
2012,09,17,17,01,21.70
2012,09,17,17,02,21.80
2012,09,17,17,03,21.80
2012,09,17,17,04,21.90
2012,09,17,17,05,21.90
2012,09,17,17,06,22.00
2012,09,17,17,07,22.00
2012,09,17,17,08,22.00
2012,09,17,17,09,22.00
2012,09,17,17,10,22.00
2012,09,17,17,11,22.00
2012,09,17,17,12,22.00
2012,09,17,17,13,22.00
2012,09,17,17,14,22.00
2012,09,17,17,15,22.00
2012,09,17,17,16,22.10
2012,09,17,17,17,22.10
2012,09,17,17,18,22.10
2012,09,17,17,19,22.10
2012,09,17,17,20,22.20
2012,09,17,17,21,22.20
2012,09,17,17,22,22.20
2012,09,17,17,23,22.20
2012,09,17,17,24,22.20
2012,09,17,17,25,22.20